Location: Little Elm
(33.1626°N, 96.9375°W)
Time: 21:17:31
(UTC+00:00)

Cosmos 1515 Rocket - Pass Details

Date: 04 July 2022
Orbit: 604 x 631 km, 82.5° (Epoch: 13 August)

Event Time Altitude Azimuth Distance (km) Brightness Sun altitude
Rises 10:29:16 0° 326° (NNW) 2,885 7.0 -10.5°
Reaches altitude 10° 10:33:01 10° 293° (WNW) 1,967 5.8 -9.8°
Maximum altitude 10:34:24 11° 275° (W) 1,873 5.6 -9.6°
Enters shadow 10:35:40 10° 257° (WSW) 1,946 5.5 -9.4°
